This is the latest recevied weather packets stored in our database for station/object OK1PNK-5. If no packets are shown the sender has not sent any weather packets the latest 10 day(s).
| Time | Temp. | Humidity | Pressure | Rain* | Wind** | Luminosity | Snow |
|---|---|---|---|---|---|---|---|
| 1778020794 | 14.44° C | 84% | 965.3 hPa | 0 mm | - | - | - |
| 1778020194 | 14.44° C | 85% | 965.3 hPa | 0 mm | - | - | - |
| 1778019594 | 14.44° C | 85% | 965.3 hPa | 0 mm | - | - | - |
| 1778018994 | 15° C | 85% | 965.3 hPa | 0 mm | - | - | - |
| 1778018394 | 15° C | 85% | 965.1 hPa | 0 mm | - | - | - |
| 1778017794 | 15° C | 84% | 965.2 hPa | 0 mm | - | - | - |
| 1778017194 | 15° C | 83% | 965.5 hPa | 0 mm | - | - | - |
| 1778016594 | 15° C | 83% | 965.5 hPa | 0 mm | - | - | - |
| 1778015994 | 15° C | 83% | 965.5 hPa | 0 mm | - | - | - |
| 1778015394 | 15° C | 83% | 965.5 hPa | 0 mm | - | - | - |
| 1778014794 | 15° C | 83% | 965.5 hPa | 0 mm | - | - | - |
| 1778014194 | 15.56° C | 82% | 965.3 hPa | 0 mm | - | - | - |
| 1778013594 | 15.56° C | 82% | 965.3 hPa | 0 mm | - | - | - |
| 1778012994 | 15.56° C | 82% | 965.4 hPa | 0 mm | - | - | - |
| 1778012394 | 15.56° C | 83% | 965.5 hPa | 0 mm | - | - | - |
| 1778011794 | 15.56° C | 83% | 965.2 hPa | 0.51 mm | - | - | - |
| 1778011194 | 15.56° C | 83% | 965.2 hPa | 0.76 mm | - | - | - |
| 1778010594 | 15.56° C | 83% | 964.7 hPa | 2.03 mm | - | - | - |
| 1778009994 | 16.11° C | 83% | 964.6 hPa | 2.03 mm | - | - | - |
| 1778009394 | 16.11° C | 83% | 964.7 hPa | 2.29 mm | - | - | - |
| 1778008794 | 16.11° C | 83% | 964.7 hPa | 2.29 mm | - | - | - |
| 1778008194 | 16.67° C | 80% | 964.1 hPa | 1.78 mm | - | - | - |
| 1778007594 | 17.78° C | 78% | 964.5 hPa | 0.51 mm | - | - | - |
| 1778006994 | 17.78° C | 78% | 964.5 hPa | 0.51 mm | - | - | - |
| 1778006394 | 17.78° C | 76% | 963.9 hPa | 0.25 mm | - | - | - |
* Rain latest hour (hover to see other rain measurements)
** Current wind speed in m/s (hover to see current wind gust speed)